M I D A S
Marine Information and Data Acquisition System
Tripno 758 of the Zeeleeuw from 2004-07-23 09:13:46 to 2004-07-23 13:34:26
Back to CruiseResearch ActivitiesStationsMapUnderway DataData graphs

EquipmentUnitsComments
TimeDGPSUTC
LatitudeDGPSDM.mWGS84
LongitudeDGPSDM.mWGS84
SpeedMeteo Stationm/sRelative wind speed
DirectionMeteo StationdegRelative wind direction
TemperatureMeteo Stationdeg CelciusAir temperature
PressureMeteo StationPaAtmospheric pressure
HumidityMeteo Station%Relative humidity
Missing or incorrect values are displayed as -999
Metereological data collected by the RV Zeeleeuw from 2004-07-23 09:13:46 to 2004-07-23 13:34:26
                                                                                    Next 1000 lines
Time Latitude Longitude Speed Direction Temperature Pressure Humidity
2004-07-23 09:13:54 51°13.598 2°56.096 3.1 192 18.7 101890 90
2004-07-23 09:14:00 51°13.598 2°56.096 5.4 206 18.7 101890 90
2004-07-23 09:14:06 51°13.598 2°56.097 5.3 213 18.7 101890 90
2004-07-23 09:14:10 51°13.598 2°56.097 3.7 167 18.7 101890 90
2004-07-23 09:14:14 51°13.598 2°56.097 3.7 165 18.6 101890 90
2004-07-23 09:14:20 51°13.598 2°56.097 4 201 18.6 101890 90
2004-07-23 09:14:23 51°13.598 2°56.097 3 199 18.6 101890 90
2004-07-23 09:14:30 51°13.598 2°56.097 2.6 200 18.6 101890 90
2004-07-23 09:14:34 51°13.598 2°56.097 5.8 223 18.7 101890 90
2004-07-23 09:14:40 51°13.598 2°56.097 5.3 215 18.7 101890 90
2004-07-23 09:14:44 51°13.597 2°56.097 6.1 218 18.6 101890 90
2004-07-23 09:14:50 51°13.597 2°56.097 4.3 208 18.6 101890 90
2004-07-23 09:14:54 51°13.597 2°56.097 5.5 228 18.7 101890 90
2004-07-23 09:15:00 51°13.597 2°56.096 4.8 208 18.7 101890 90
2004-07-23 09:15:04 51°13.597 2°56.095 5 203 18.6 101890 89
2004-07-23 09:15:08 51°13.597 2°56.094 4.5 211 18.6 101890 89
2004-07-23 09:15:14 51°13.598 2°56.092 5.1 207 18.6 101890 89
2004-07-23 09:15:18 51°13.599 2°56.089 5.9 209 18.6 101890 89
2004-07-23 09:15:24 51°13.6 2°56.085 5 211 18.6 101890 89
2004-07-23 09:15:30 51°13.601 2°56.079 5 197 18.6 101890 89
2004-07-23 09:15:36 51°13.603 2°56.073 5.9 216 18.6 101890 89
2004-07-23 09:15:39 51°13.604 2°56.07 3.7 192 18.6 101890 89
2004-07-23 09:15:46 51°13.606 2°56.062 6.2 195 18.6 101890 89
2004-07-23 09:15:50 51°13.608 2°56.057 5.6 205 18.6 101890 89
2004-07-23 09:15:56 51°13.61 2°56.049 5.7 198 18.6 101890 89
2004-07-23 09:16:00 51°13.611 2°56.044 6.8 204 18.6 101890 89
2004-07-23 09:16:06 51°13.614 2°56.036 5.4 206 18.6 101890 89
2004-07-23 09:16:10 51°13.615 2°56.031 6.5 199 18.6 101890 89
2004-07-23 09:16:16 51°13.617 2°56.022 6.7 203 18.6 101890 90
2004-07-23 09:16:20 51°13.619 2°56.016 6.9 200 18.6 101890 90
2004-07-23 09:16:26 51°13.622 2°56.007 6.5 207 18.5 101890 89
2004-07-23 09:16:30 51°13.624 2°56.001 6.7 201 18.5 101890 89
2004-07-23 09:16:36 51°13.626 2°55.992 7.1 203 18.5 101890 89
2004-07-23 09:16:40 51°13.629 2°55.986 5.8 197 18.5 101890 89
2004-07-23 09:16:46 51°13.632 2°55.976 5.7 199 18.5 101900 89
2004-07-23 09:16:50 51°13.634 2°55.97 6.6 203 18.5 101900 89
2004-07-23 09:16:56 51°13.637 2°55.959 6.9 205 18.4 101900 89
2004-07-23 09:17:00 51°13.639 2°55.953 6.4 205 18.4 101900 89
2004-07-23 09:17:06 51°13.643 2°55.942 6.5 203 18.5 101890 90
2004-07-23 09:17:10 51°13.645 2°55.935 7.6 204 18.5 101890 90
2004-07-23 09:17:16 51°13.648 2°55.925 9.2 208 18.4 101900 90
2004-07-23 09:17:20 51°13.65 2°55.918 6.1 202 18.4 101900 90
2004-07-23 09:17:26 51°13.653 2°55.908 7.2 204 18.4 101900 89
2004-07-23 09:17:30 51°13.655 2°55.901 7.6 208 18.4 101900 89
2004-07-23 09:17:36 51°13.658 2°55.89 7 208 18.3 101890 89
2004-07-23 09:17:40 51°13.66 2°55.882 7.3 209 18.3 101890 89
2004-07-23 09:17:46 51°13.662 2°55.871 8.2 215 18.3 101900 90
2004-07-23 09:17:50 51°13.664 2°55.864 8.7 211 18.3 101900 90
2004-07-23 09:17:55 51°13.666 2°55.855 8 207 18.3 101900 90
2004-07-23 09:17:59 51°13.668 2°55.847 6.6 216 18.3 101900 90
2004-07-23 09:18:05 51°13.67 2°55.836 7.9 229 18.3 101900 90
2004-07-23 09:18:10 51°13.671 2°55.826 8.3 224 18.3 101900 90
2004-07-23 09:18:15 51°13.673 2°55.817 7.3 222 18.2 101900 90
2004-07-23 09:18:19 51°13.674 2°55.809 6.5 227 18.2 101900 90
2004-07-23 09:18:25 51°13.675 2°55.797 7.2 228 18.2 101900 90
2004-07-23 09:18:30 51°13.676 2°55.788 7.3 232 18.2 101900 90
2004-07-23 09:18:35 51°13.677 2°55.779 7.8 225 18.2 101890 90
2004-07-23 09:18:39 51°13.677 2°55.773 5.6 220 18.2 101890 90
2004-07-23 09:18:45 51°13.678 2°55.764 5.7 249 18.2 101890 90
2004-07-23 09:18:50 51°13.678 2°55.758 4 251 18.2 101890 90
2004-07-23 09:18:54 51°13.678 2°55.754 4.4 241 18.2 101900 90
2004-07-23 09:18:59 51°13.678 2°55.751 4.5 254 18.2 101900 90
2004-07-23 09:19:03 51°13.679 2°55.749 5.8 266 18.2 101900 91
2004-07-23 09:19:10 51°13.679 2°55.748 4.6 284 18.2 101900 91
2004-07-23 09:19:14 51°13.68 2°55.748 5.2 279 18.2 101890 91
2004-07-23 09:19:20 51°13.681 2°55.749 5.5 285 18.2 101890 91
2004-07-23 09:19:24 51°13.682 2°55.751 4.4 287 18.2 101900 91
2004-07-23 09:19:30 51°13.684 2°55.754 4.5 305 18.2 101900 91
2004-07-23 09:19:34 51°13.685 2°55.755 4.9 308 18.3 101890 91
2004-07-23 09:19:39 51°13.688 2°55.758 5.2 319 18.3 101890 91
2004-07-23 09:19:42 51°13.69 2°55.759 5.3 326 18.3 101890 91
2004-07-23 09:19:49 51°13.695 2°55.761 4.7 322 18.3 101890 91
2004-07-23 09:19:53 51°13.699 2°55.762 6.4 341 18.3 101900 91
2004-07-23 09:19:59 51°13.705 2°55.761 5.6 336 18.3 101900 91
2004-07-23 09:20:04 51°13.711 2°55.759 7.1 349 18.3 101900 91
2004-07-23 09:20:09 51°13.717 2°55.756 6.9 3 18.3 101900 91
2004-07-23 09:20:13 51°13.721 2°55.752 6.8 9 18.3 101890 91
2004-07-23 09:20:19 51°13.728 2°55.745 7.7 12 18.3 101890 91
2004-07-23 09:20:25 51°13.735 2°55.737 8.8 17 18.3 101890 91
2004-07-23 09:20:29 51°13.74 2°55.731 7.4 358 18.3 101890 91
2004-07-23 09:20:34 51°13.746 2°55.723 7.9 3 18.3 101890 91
2004-07-23 09:20:39 51°13.753 2°55.715 6.8 9 18.3 101890 91
2004-07-23 09:20:42 51°13.758 2°55.71 8.5 12 18.3 101890 91
2004-07-23 09:20:49 51°13.768 2°55.697 8 359 18.3 101890 91
2004-07-23 09:20:53 51°13.774 2°55.69 8.1   18.3 101880 91
2004-07-23 09:20:59 51°13.784 2°55.68 7.4 6 18.3 101880 91
2004-07-23 09:21:03 51°13.791 2°55.672 7.4 9 18.3 101890 91
2004-07-23 09:21:09 51°13.802 2°55.662 7.9 7 18.3 101890 91
2004-07-23 09:21:14 51°13.811 2°55.653 7.1 360 18.3 101890 91
2004-07-23 09:21:19 51°13.821 2°55.644 8.4 3 18.3 101890 91
2004-07-23 09:21:23 51°13.829 2°55.637 9.7 3 18.4 101890 91
2004-07-23 09:21:30 51°13.843 2°55.625 7.8 353 18.4 101890 91
2004-07-23 09:21:34 51°13.852 2°55.619 8.7 354 18.3 101890 91
2004-07-23 09:21:39 51°13.862 2°55.611 9.9 4 18.3 101890 91
2004-07-23 09:21:43 51°13.871 2°55.605 8.2 347 18.3 101900 91
2004-07-23 09:21:49 51°13.884 2°55.596 9.6 353 18.3 101900 91
2004-07-23 09:21:54 51°13.896 2°55.589 8.5 354 18.3 101890 91
2004-07-23 09:21:59 51°13.907 2°55.581 10.8 359 18.3 101890 91
2004-07-23 09:22:03 51°13.916 2°55.576 10.8 1 18.3 101890 91
2004-07-23 09:22:09 51°13.93 2°55.568 10.1 2 18.3 101890 91
2004-07-23 09:22:14 51°13.941 2°55.561 10.3 354 18.3 101890 91
2004-07-23 09:22:19 51°13.953 2°55.554 9.6 358 18.3 101890 91
2004-07-23 09:22:26 51°13.969 2°55.545 9.8 354 18.3 101900 91
2004-07-23 09:22:30 51°13.979 2°55.539 10.2 2 18.3 101900 91
2004-07-23 09:22:34 51°13.988 2°55.534 9.7 2 18.3 101890 91
2004-07-23 09:22:38 51°13.998 2°55.528 10.4 5 18.3 101890 91
2004-07-23 09:22:44 51°14.012 2°55.519 11 358 18.3 101890 91
2004-07-23 09:22:50 51°14.026 2°55.511 10.7 359 18.3 101890 91
2004-07-23 09:22:54 51°14.036 2°55.505 11.1 3 18.3 101890 91
2004-07-23 09:23:00 51°14.05 2°55.496 11.6 358 18.3 101890 91
2004-07-23 09:23:04 51°14.06 2°55.49 11.3 359 18.3 101890 91
2004-07-23 09:23:10 51°14.075 2°55.48 11.3 359 18.3 101890 91
2004-07-23 09:23:14 51°14.084 2°55.473 11.4 356 18.3 101890 91
2004-07-23 09:23:20 51°14.099 2°55.463 11.2 358 18.3 101890 91
2004-07-23 09:23:22 51°14.104 2°55.46 11.4 3 18.3 101890 91
2004-07-23 09:23:30 51°14.124 2°55.444 11.8 6 18.3 101890 91
2004-07-23 09:23:34 51°14.134 2°55.436 10.9 1 18.3 101890 91
2004-07-23 09:23:39 51°14.146 2°55.425 12   18.3 101890 91
2004-07-23 09:23:43 51°14.156 2°55.416 11.2 2 18.3 101890 91
2004-07-23 09:23:50 51°14.173 2°55.4 11.8 7 18.3 101890 91
2004-07-23 09:23:54 51°14.183 2°55.389 12.1 8 18.3 101890 91
2004-07-23 09:23:59 51°14.194 2°55.373 14.3 3 18.3 101890 91
2004-07-23 09:24:02 51°14.201 2°55.363 13.8 9 18.3 101890 91
2004-07-23 09:24:10 51°14.219 2°55.336 14.5 10 18.3 101890 91
2004-07-23 09:24:14 51°14.228 2°55.321 13.4 11 18.2 101890 91
2004-07-23 09:24:18 51°14.237 2°55.306 13.5 12 18.2 101890 91
2004-07-23 09:24:24 51°14.25 2°55.283 14.1 15 18.2 101880 91
2004-07-23 09:24:30 51°14.263 2°55.259 13.8 14 18.2 101880 91
2004-07-23 09:24:35 51°14.274 2°55.238 13.4 15 18.2 101880 91
2004-07-23 09:24:40 51°14.285 2°55.217 13.8 11 18.2 101880 91
2004-07-23 09:24:45 51°14.296 2°55.196 13.7 10 18.2 101880 91
2004-07-23 09:24:50 51°14.307 2°55.175 13.3 11 18.2 101880 91
2004-07-23 09:24:54 51°14.317 2°55.159 14.1 8 18.2 101880 91
2004-07-23 09:25:00 51°14.332 2°55.135 13.3 14 18.2 101880 91
2004-07-23 09:25:06 51°14.348 2°55.112 14.5 5 18.2 101880 91
2004-07-23 09:25:10 51°14.358 2°55.096 13.5 3 18.2 101880 91
2004-07-23 09:25:14 51°14.368 2°55.082 14 9 18.1 101890 91
2004-07-23 09:25:20 51°14.384 2°55.059 13.3 8 18.1 101890 91
2004-07-23 09:25:24 51°14.395 2°55.043 13.7 3 18.1 101880 91
2004-07-23 09:25:30 51°14.411 2°55.019 13.9 8 18.1 101880 91
2004-07-23 09:25:34 51°14.422 2°55.003 13.4 7 18.1 101890 91
2004-07-23 09:25:39 51°14.434 2°54.981 15.3 3 18.1 101890 91
2004-07-23 09:25:44 51°14.446 2°54.959 13.1 7 18.1 101890 91
2004-07-23 09:25:50 51°14.461 2°54.932 13.8 3 18.1 101890 91
2004-07-23 09:25:54 51°14.471 2°54.916 14 1 18.1 101890 92
2004-07-23 09:25:59 51°14.486 2°54.897 15.1 356 18.1 101890 92
2004-07-23 09:26:04 51°14.5 2°54.879 15 356 18.1 101890 92
2004-07-23 09:26:10 51°14.517 2°54.858 13.8 358 18.1 101890 92
2004-07-23 09:26:14 51°14.529 2°54.845 13.1 359 18.1 101880 92
2004-07-23 09:26:20 51°14.547 2°54.825 14.2 360 18.1 101880 92
2004-07-23 09:26:26 51°14.565 2°54.805 13.6 359 18.1 101890 92
2004-07-23 09:26:30 51°14.576 2°54.792 13.8 360 18.1 101890 92
2004-07-23 09:26:34 51°14.588 2°54.779 14.5 358 18.1 101870 92
2004-07-23 09:26:40 51°14.606 2°54.76 14.3 358 18.1 101870 92
2004-07-23 09:26:44 51°14.619 2°54.747 14.2 356 18.1 101890 92
2004-07-23 09:26:50 51°14.637 2°54.73 14.3 1 18.1 101890 92
2004-07-23 09:26:54 51°14.65 2°54.718 14.9   18.1 101890 92
2004-07-23 09:27:00 51°14.669 2°54.702 14.7 357 18.1 101890 92
2004-07-23 09:27:04 51°14.681 2°54.691 14.9 355 18.1 101890 92
2004-07-23 09:27:10 51°14.7 2°54.675 14.5 353 18.1 101890 92
2004-07-23 09:27:14 51°14.713 2°54.664 14.1 353 18.1 101880 92
2004-07-23 09:27:20 51°14.732 2°54.648 14.5 357 18.1 101880 92
2004-07-23 09:27:26 51°14.752 2°54.631 13.6 354 18 101890 92
2004-07-23 09:27:30 51°14.764 2°54.621 14.1   18 101890 92
2004-07-23 09:27:34 51°14.777 2°54.609 14.3 357 18 101880 92
2004-07-23 09:27:40 51°14.796 2°54.592 14.1   18 101880 92
2004-07-23 09:27:44 51°14.808 2°54.58 13.8 357 18 101880 92
2004-07-23 09:27:50 51°14.827 2°54.562 13.8 358 18 101880 92
2004-07-23 09:27:54 51°14.839 2°54.55 12.8 360 18 101880 92
2004-07-23 09:28:00 51°14.857 2°54.531 15.3 360 18 101880 92
2004-07-23 09:28:04 51°14.87 2°54.519 14.2 357 18 101880 92
2004-07-23 09:28:10 51°14.888 2°54.501 14.3 357 18 101880 92
2004-07-23 09:28:14 51°14.9 2°54.488 14.5 353 18 101890 92
2004-07-23 09:28:20 51°14.919 2°54.471 14 349 18 101890 92
2004-07-23 09:28:24 51°14.931 2°54.46 12.8 355 18 101890 92
2004-07-23 09:28:30 51°14.95 2°54.444 13.6 355 18 101890 92
2004-07-23 09:28:34 51°14.963 2°54.434 14.3 350 18 101890 92
2004-07-23 09:28:40 51°14.982 2°54.419 12.7 350 18 101890 92
2004-07-23 09:28:46 51°15.001 2°54.405 12.6 350 18 101890 92
2004-07-23 09:28:50 51°15.013 2°54.396 13.1 350 18 101890 92
2004-07-23 09:28:54 51°15.026 2°54.387 13.4 352 18.1 101900 92
2004-07-23 09:29:00 51°15.045 2°54.373 12.8 352 18.1 101900 92
2004-07-23 09:29:06 51°15.064 2°54.359 12.5 346 18.1 101890 92
2004-07-23 09:29:10 51°15.077 2°54.35 13 350 18.1 101890 92
2004-07-23 09:29:14 51°15.089 2°54.341 12.8 352 18.1 101890 92
2004-07-23 09:29:20 51°15.108 2°54.326 12.7 355 18.1 101890 92
2004-07-23 09:29:22 51°15.114 2°54.321 12.7 355 18.1 101890 92
2004-07-23 09:29:30 51°15.14 2°54.301 13.9 352 18.1 101890 92
2004-07-23 09:29:34 51°15.152 2°54.29 14.8 357 18.1 101900 92
2004-07-23 09:29:38 51°15.165 2°54.279 14 357 18.1 101900 92
2004-07-23 09:29:42 51°15.177 2°54.267 13.9 357 18.1 101890 92
2004-07-23 09:29:50 51°15.201 2°54.24 14.4 358 18.1 101890 92
2004-07-23 09:29:54 51°15.212 2°54.227 13.8 356 18.1 101900 92
2004-07-23 09:30:00 51°15.229 2°54.206 15 358 18.1 101900 92
2004-07-23 09:30:02 51°15.235 2°54.199 14.5 355 18.1 101890 92
2004-07-23 09:30:10 51°15.258 2°54.171 15.5 355 18.1 101890 92
2004-07-23 09:30:14 51°15.27 2°54.157 15.3 355 18.1 101890 92
2004-07-23 09:30:20 51°15.288 2°54.137 15.1 352 18.1 101890 92
2004-07-23 09:30:24 51°15.3 2°54.125 15.1 351 18.1 101890 92
2004-07-23 09:30:30 51°15.319 2°54.109 13.8 350 18.1 101890 92
2004-07-23 09:30:34 51°15.333 2°54.099 14.3 350 18.1 101890 92
2004-07-23 09:30:40 51°15.352 2°54.085 13.7 351 18.1 101890 92
2004-07-23 09:30:44 51°15.365 2°54.077 13.5 347 18.1 101890 92
2004-07-23 09:30:50 51°15.385 2°54.064 14.2 348 18.1 101890 92
2004-07-23 09:30:54 51°15.399 2°54.055 13.3 350 18.1 101890 92
2004-07-23 09:31:00 51°15.419 2°54.042 14.3 347 18.1 101890 92
2004-07-23 09:31:04 51°15.432 2°54.033 13.8 347 18.1 101890 92
2004-07-23 09:31:10 51°15.452 2°54.019 13.3 349 18.1 101890 92
2004-07-23 09:31:14 51°15.465 2°54.009 14.3 348 18.1 101890 92
2004-07-23 09:31:20 51°15.485 2°53.994 13.8 349 18.1 101890 92
2004-07-23 09:31:24 51°15.498 2°53.983 13.5 352 18.1 101890 92
2004-07-23 09:31:30 51°15.517 2°53.967 13.7 350 18.1 101890 92
2004-07-23 09:31:34 51°15.53 2°53.957 13.5 353 18.1 101890 92
2004-07-23 09:31:40 51°15.549 2°53.94 13.4 350 18.1 101890 92
2004-07-23 09:31:44 51°15.562 2°53.93 13.9 351 18.2 101890 92
2004-07-23 09:31:50 51°15.582 2°53.914 13.3 352 18.2 101890 92
2004-07-23 09:31:54 51°15.595 2°53.903 13.8 349 18.2 101890 92
2004-07-23 09:32:00 51°15.615 2°53.888 13.8 350 18.2 101890 92
2004-07-23 09:32:06 51°15.634 2°53.874 14.6 349 18.2 101890 92
2004-07-23 09:32:10 51°15.648 2°53.864 14.5 350 18.2 101890 92
2004-07-23 09:32:14 51°15.661 2°53.854 13.9 353 18.2 101890 92
2004-07-23 09:32:20 51°15.68 2°53.839 14.3 348 18.2 101890 92
2004-07-23 09:32:24 51°15.694 2°53.83 14 351 18.2 101890 92
2004-07-23 09:32:30 51°15.713 2°53.815 15.2 348 18.2 101890 92
2004-07-23 09:32:34 51°15.726 2°53.805 14.5 348 18.2 101880 92
2004-07-23 09:32:40 51°15.746 2°53.789 13.4 349 18.2 101880 92
2004-07-23 09:32:44 51°15.759 2°53.778 13.7 349 18.2 101890 92
2004-07-23 09:32:48 51°15.771 2°53.767 14.2 351 18.2 101890 92
2004-07-23 09:32:54 51°15.791 2°53.751 14.7 352 18.2 101890 92
2004-07-23 09:33:00 51°15.81 2°53.735 14.3 349 18.2 101890 92
2004-07-23 09:33:04 51°15.823 2°53.724 14 352 18.2 101890 92
2004-07-23 09:33:10 51°15.843 2°53.709 14 350 18.2 101890 92
2004-07-23 09:33:14 51°15.856 2°53.699 14.3 349 18.2 101890 92
2004-07-23 09:33:20 51°15.875 2°53.684 14.1 350 18.2 101890 92
2004-07-23 09:33:24 51°15.888 2°53.673 14.9 351 18.2 101880 92
2004-07-23 09:33:30 51°15.907 2°53.658 14.1 349 18.2 101880 92
2004-07-23 09:33:34 51°15.921 2°53.648 14 346 18.2 101890 92
2004-07-23 09:33:40 51°15.94 2°53.632 13.5 348 18.2 101890 92
2004-07-23 09:33:44 51°15.953 2°53.622 13.7 347 18.2 101890 91
2004-07-23 09:33:50 51°15.972 2°53.607 13.4 350 18.2 101890 91
2004-07-23 09:33:54 51°15.985 2°53.597 13.7 349 18.2 101890 91
2004-07-23 09:34:00 51°16.005 2°53.581 15.1 352 18.2 101890 91
2004-07-23 09:34:04 51°16.018 2°53.571 15.3 351 18.2 101890 91
2004-07-23 09:34:10 51°16.037 2°53.556 14.9 352 18.2 101890 91
2004-07-23 09:34:14 51°16.05 2°53.545 13.8 348 18.2 101890 92
2004-07-23 09:34:19 51°16.066 2°53.532 14.2 348 18.2 101890 92
2004-07-23 09:34:24 51°16.082 2°53.518 14.6 348 18.2 101890 92
2004-07-23 09:34:30 51°16.101 2°53.502 13.6 348 18.2 101890 92
2004-07-23 09:34:35 51°16.117 2°53.489 14.3 348 18.2 101880 91
2004-07-23 09:34:40 51°16.133 2°53.476 13.2 346 18.2 101880 91
2004-07-23 09:34:44 51°16.146 2°53.465 14.1 355 18.2 101890 91
2004-07-23 09:34:50 51°16.165 2°53.45 14.5 347 18.2 101890 91
2004-07-23 09:34:54 51°16.178 2°53.439 15.3 347 18.3 101890 91
2004-07-23 09:35:00 51°16.197 2°53.424 14.9 347 18.3 101890 91
2004-07-23 09:35:02 51°16.204 2°53.419 14.4 347 18.3 101890 92
2004-07-23 09:35:10 51°16.23 2°53.398 12.9 346 18.3 101890 92
2004-07-23 09:35:14 51°16.243 2°53.388 15.4 347 18.3 101890 92
2004-07-23 09:35:20 51°16.262 2°53.372 13.3 350 18.3 101890 92
2004-07-23 09:35:24 51°16.275 2°53.361 13.6 346 18.3 101890 91
2004-07-23 09:35:30 51°16.294 2°53.345 13.4 350 18.3 101890 91
2004-07-23 09:35:35 51°16.31 2°53.331 14.9 349 18.3 101890 92
2004-07-23 09:35:40 51°16.326 2°53.318 15.5 351 18.3 101890 92
2004-07-23 09:35:46 51°16.344 2°53.3 14.8 351 18.3 101890 91
2004-07-23 09:35:50 51°16.357 2°53.289 14.2 354 18.3 101890 91
2004-07-23 09:35:54 51°16.369 2°53.277 14.8 351 18.3 101890 91
2004-07-23 09:36:00 51°16.388 2°53.259 15.1 347 18.3 101890 91
2004-07-23 09:36:04 51°16.401 2°53.247 14.9 348 18.3 101890 91
2004-07-23 09:36:10 51°16.419 2°53.23 14.3 354 18.3 101890 91
2004-07-23 09:36:14 51°16.432 2°53.218 13.9 351 18.3 101890 91
2004-07-23 09:36:20 51°16.451 2°53.201 14 350 18.3 101890 91
2004-07-23 09:36:24 51°16.464 2°53.189 13.7 347 18.3 101890 91
2004-07-23 09:36:30 51°16.483 2°53.173 15.8 348 18.3 101890 91
2004-07-23 09:36:35 51°16.498 2°53.159 15.2 347 18.3 101890 91
2004-07-23 09:36:40 51°16.514 2°53.144 15.2 347 18.3 101890 91
2004-07-23 09:36:44 51°16.527 2°53.133 14.6 352 18.3 101890 92
2004-07-23 09:36:50 51°16.545 2°53.115 15.3 348 18.3 101890 92
2004-07-23 09:36:54 51°16.558 2°53.103 14.8 351 18.3 101890 91
2004-07-23 09:37:00 51°16.577 2°53.085 14.9 349 18.3 101890 91
2004-07-23 09:37:03 51°16.586 2°53.077 14.7 350 18.3 101880 91
2004-07-23 09:37:10 51°16.608 2°53.056 15.3 349 18.3 101880 91
2004-07-23 09:37:14 51°16.62 2°53.045 15.1 350 18.3 101880 91
2004-07-23 09:37:20 51°16.639 2°53.028 14.8 349 18.3 101880 91
2004-07-23 09:37:24 51°16.652 2°53.017 15.1 348 18.2 101880 91
2004-07-23 09:37:30 51°16.671 2°53.001 13.7 350 18.2 101880 91
2004-07-23 09:37:35 51°16.687 2°52.987 14.7 347 18.3 101890 91
2004-07-23 09:37:40 51°16.703 2°52.973 15.1 347 18.3 101890 91
2004-07-23 09:37:44 51°16.715 2°52.962 14.9 350 18.2 101880 91
2004-07-23 09:37:50 51°16.734 2°52.945 13.1 353 18.2 101880 91
2004-07-23 09:37:54 51°16.747 2°52.934 14.9 354 18.2 101890 91
2004-07-23 09:38:00 51°16.766 2°52.918 15.1 351 18.2 101890 91
2004-07-23 09:38:04 51°16.778 2°52.907 14.3 352 18.2 101890 91
2004-07-23 09:38:10 51°16.797 2°52.891 14.1 350 18.2 101890 91
2004-07-23 09:38:14 51°16.81 2°52.881 14.4 348 18.2 101890 91
2004-07-23 09:38:18 51°16.822 2°52.871 13.6 351 18.2 101890 91
2004-07-23 09:38:24 51°16.841 2°52.855 14.1 348 18.2 101890 91
2004-07-23 09:38:30 51°16.859 2°52.84 13.9 351 18.2 101890 91
2004-07-23 09:38:35 51°16.875 2°52.828 14.2 351 18.2 101890 91
2004-07-23 09:38:40 51°16.89 2°52.815 13.6 353 18.2 101890 91
2004-07-23 09:38:46 51°16.909 2°52.8 13.3 351 18.2 101890 91
2004-07-23 09:38:50 51°16.922 2°52.79 13.4 350 18.2 101890 91
2004-07-23 09:38:54 51°16.935 2°52.78 13.9 353 18.2 101890 91
2004-07-23 09:39:00 51°16.954 2°52.765 14.3 350 18.2 101890 91
2004-07-23 09:39:04 51°16.967 2°52.755 13.7 352 18.2 101890 91
2004-07-23 09:39:11 51°16.989 2°52.738 15 353 18.2 101890 91
2004-07-23 09:39:15 51°17.002 2°52.728 14.8 350 18.2 101890 91
2004-07-23 09:39:20 51°17.018 2°52.714 14.6 353 18.2 101890 91
2004-07-23 09:39:24 51°17.031 2°52.703 14 354 18.2 101890 91
2004-07-23 09:39:30 51°17.05 2°52.686 14.2 354 18.2 101890 91
2004-07-23 09:39:35 51°17.065 2°52.671 13.5 356 18.2 101890 91
2004-07-23 09:39:40 51°17.081 2°52.656 13.7 349 18.2 101890 91
2004-07-23 09:39:46 51°17.1 2°52.639 14.2 8 18.2 101890 91
2004-07-23 09:39:50 51°17.112 2°52.627 14.8 354 18.2 101890 91
2004-07-23 09:39:55 51°17.128 2°52.613 15.3 357 18.2 101900 91
2004-07-23 09:40:00 51°17.144 2°52.6 13.6 352 18.2 101900 91
2004-07-23 09:40:04 51°17.156 2°52.59 13.7 350 18.2 101890 91
2004-07-23 09:40:10 51°17.175 2°52.575 13.6 352 18.2 101890 91
2004-07-23 09:40:14 51°17.188 2°52.565 14.1 349 18.2 101890 91
2004-07-23 09:40:20 51°17.208 2°52.55 14 358 18.2 101890 91
2004-07-23 09:40:26 51°17.227 2°52.534 14.8 354 18.2 101890 91
2004-07-23 09:40:30 51°17.239 2°52.523 14.1 352 18.2 101890 91
2004-07-23 09:40:35 51°17.255 2°52.509 14.5 359 18.2 101890 91
2004-07-23 09:40:40 51°17.271 2°52.494 15.4 356 18.2 101890 91
2004-07-23 09:40:46 51°17.289 2°52.476 14.9 357 18.2 101900 91
2004-07-23 09:40:50 51°17.301 2°52.464 14 2 18.2 101900 91
2004-07-23 09:40:54 51°17.313 2°52.449 14.5   18.2 101890 91
2004-07-23 09:41:00 51°17.328 2°52.425 14.5 3 18.2 101890 91
2004-07-23 09:41:04 51°17.338 2°52.408 15 8 18.2 101890 91
2004-07-23 09:41:10 51°17.351 2°52.38 14.3 5 18.2 101890 91
2004-07-23 09:41:14 51°17.359 2°52.36 15 11 18.1 101900 91
2004-07-23 09:41:20 51°17.371 2°52.331 13.9 9 18.1 101900 91
2004-07-23 09:41:24 51°17.379 2°52.31 14.4 10 18.1 101890 91
2004-07-23 09:41:30 51°17.39 2°52.28 14.3 11 18.1 101890 91
2004-07-23 09:41:34 51°17.397 2°52.259 14.3 12 18.1 101890 91
2004-07-23 09:41:40 51°17.408 2°52.228 15.6 13 18.1 101890 91
2004-07-23 09:41:44 51°17.415 2°52.207 15.9 10 18.1 101890 91
2004-07-23 09:41:50 51°17.426 2°52.176 15.4 12 18.1 101890 91
2004-07-23 09:41:55 51°17.436 2°52.15 15.1 10 18.1 101900 91
2004-07-23 09:42:00 51°17.445 2°52.125 15.1 10 18.1 101900 91
2004-07-23 09:42:04 51°17.453 2°52.104 15.1 11 18.1 101900 91
2004-07-23 09:42:10 51°17.464 2°52.073 15.3 16 18.1 101900 91
2004-07-23 09:42:14 51°17.471 2°52.052 15.1 17 18.1 101890 91
2004-07-23 09:42:20 51°17.48 2°52.019 14.9 18 18.1 101890 91
2004-07-23 09:42:24 51°17.486 2°51.997 14.1 19 18 101890 90
2004-07-23 09:42:30 51°17.494 2°51.964 14 14 18 101890 90
2004-07-23 09:42:35 51°17.501 2°51.936 14.7 17 18 101890 91
2004-07-23 09:42:40 51°17.507 2°51.907 14.6 20 18 101890 91
2004-07-23 09:42:46 51°17.515 2°51.873 15.3 19 18 101890 91
2004-07-23 09:42:50 51°17.52 2°51.85 14.4 17 18 101890 91
2004-07-23 09:42:55 51°17.526 2°51.822 14.8 18 18 101880 91
2004-07-23 09:43:00 51°17.532 2°51.794 14.2 16 18 101880 91
2004-07-23 09:43:04 51°17.538 2°51.771 14.8 14 18 101880 91
2004-07-23 09:43:10 51°17.546 2°51.738 14.7 17 18 101880 91
2004-07-23 09:43:15 51°17.553 2°51.71 14.1 12 18 101880 91
2004-07-23 09:43:20 51°17.56 2°51.683 14.7 13 18 101880 91
2004-07-23 09:43:24 51°17.566 2°51.66 14.1 16 18 101880 91
2004-07-23 09:43:30 51°17.575 2°51.627 14.4 14 18 101880 91
2004-07-23 09:43:35 51°17.582 2°51.6 13.7 13 18 101890 91
2004-07-23 09:43:40 51°17.588 2°51.572 15.1 19 18 101890 91
2004-07-23 09:43:44 51°17.594 2°51.549 15 20 17.9 101890 91
2004-07-23 09:43:51 51°17.603 2°51.51 14.9 19 17.9 101890 91
2004-07-23 09:43:55 51°17.608 2°51.488 14.2 16 18 101890 91
2004-07-23 09:44:00 51°17.614 2°51.46 15.1 18 18 101890 91
2004-07-23 09:44:05 51°17.622 2°51.432 15 16 18 101900 91
2004-07-23 09:44:10 51°17.629 2°51.404 15.1 14 18 101900 91
2004-07-23 09:44:14 51°17.634 2°51.382 14.9 17 18 101880 91
2004-07-23 09:44:20 51°17.644 2°51.347 13.7 14 18 101880 91
2004-07-23 09:44:25 51°17.651 2°51.319 14.2 18 18 101890 91
2004-07-23 09:44:30 51°17.66 2°51.29 14 17 18 101890 91
2004-07-23 09:44:35 51°17.669 2°51.261 14.4 21 18 101890 91
2004-07-23 09:44:40 51°17.677 2°51.233 14 18 18 101890 91
2004-07-23 09:44:46 51°17.685 2°51.199 13.1 18 18 101890 91
2004-07-23 09:44:50 51°17.69 2°51.176 15.6 20 18 101890 91
2004-07-23 09:44:54 51°17.695 2°51.153 14.5 19 18 101890 91
2004-07-23 09:45:00 51°17.704 2°51.116 14.8 22 18 101890 91
2004-07-23 09:45:04 51°17.709 2°51.093 14.1 18 17.9 101890 91
2004-07-23 09:45:10 51°17.716 2°51.058 13.4 21 17.9 101890 91
2004-07-23 09:45:15 51°17.722 2°51.029 14.1 22 17.9 101890 91
2004-07-23 09:45:20 51°17.728 2°51 15.1 17 17.9 101890 91
2004-07-23 09:45:24 51°17.732 2°50.977 15.3 19 18 101880 91
2004-07-23 09:45:30 51°17.739 2°50.942 14.7 20 18 101880 91
2004-07-23 09:45:34 51°17.744 2°50.92 15.5 22 18 101880 91
2004-07-23 09:45:40 51°17.752 2°50.885 14.8 23 18 101880 91
2004-07-23 09:45:44 51°17.757 2°50.863 14.6 18 18 101890 91
2004-07-23 09:45:50 51°17.765 2°50.829 14.3 15 18 101890 91
2004-07-23 09:45:55 51°17.771 2°50.801 14.9 19 18 101880 91
2004-07-23 09:46:00 51°17.778 2°50.772 14.5 20 18 101880 91
2004-07-23 09:46:06 51°17.786 2°50.738 14.7 19 18 101880 90
2004-07-23 09:46:11 51°17.793 2°50.709 15.3 20 18 101880 90
2004-07-23 09:46:15 51°17.798 2°50.686 14.2 20 18 101890 91
2004-07-23 09:46:20 51°17.804 2°50.657 14.7 21 18 101890 91
2004-07-23 09:46:24 51°17.809 2°50.633 14.2 18 18 101880 91
2004-07-23 09:46:30 51°17.817 2°50.598 15.8 23 18 101880 91
2004-07-23 09:46:35 51°17.823 2°50.569 14.9 16 18 101890 91
2004-07-23 09:46:40 51°17.829 2°50.54 14.6 19 18 101890 91
2004-07-23 09:46:44 51°17.834 2°50.517 15.1 18 18 101900 91
2004-07-23 09:46:50 51°17.842 2°50.481 14.6 18 18 101900 91
2004-07-23 09:46:55 51°17.848 2°50.453 14.4 17 18 101890 91
2004-07-23 09:47:00 51°17.854 2°50.424 16.1 17 18 101890 91
2004-07-23 09:47:04 51°17.859 2°50.401 15.2 17 18 101880 91
2004-07-23 09:47:10 51°17.866 2°50.366 15.4 19 18 101880 91
2004-07-23 09:47:15 51°17.872 2°50.338 15.2 19 17.9 101880 90
2004-07-23 09:47:20 51°17.878 2°50.309 15.9 19 17.9 101880 90
2004-07-23 09:47:24 51°17.883 2°50.286 15.6 15 17.9 101890 90
2004-07-23 09:47:30 51°17.891 2°50.251 15.9 16 17.9 101890 90
2004-07-23 09:47:34 51°17.896 2°50.228 15.4 16 17.9 101890 90
2004-07-23 09:47:40 51°17.903 2°50.193 15 20 17.9 101890 90
2004-07-23 09:47:46 51°17.911 2°50.159 15.1 17 17.9 101890 91
2004-07-23 09:47:50 51°17.916 2°50.136 15.2 23 17.9 101890 91
2004-07-23 09:47:55 51°17.922 2°50.107 15.1 22 17.9 101890 91
2004-07-23 09:48:00 51°17.928 2°50.078 15.1 18 17.9 101890 91
2004-07-23 09:48:05 51°17.934 2°50.049 15.1 18 17.9 101870 90
2004-07-23 09:48:10 51°17.941 2°50.02 14.1 16 17.9 101870 90
2004-07-23 09:48:15 51°17.947 2°49.991 13.5 11 18 101880 90
2004-07-23 09:48:20 51°17.953 2°49.962 14.7 14 18 101880 90
2004-07-23 09:48:24 51°17.958 2°49.939 16.6 15 17.9 101880 90
2004-07-23 09:48:28 51°17.963 2°49.916 14.6 15 17.9 101880 90
2004-07-23 09:48:35 51°17.971 2°49.876 14.9 21 18 101880 91
2004-07-23 09:48:40 51°17.977 2°49.847 15.4 14 18 101880 91
2004-07-23 09:48:44 51°17.982 2°49.824 15.5 16 18 101890 91
2004-07-23 09:48:50 51°17.99 2°49.789 16.2 16 18 101890 91
2004-07-23 09:48:54 51°17.995 2°49.766 14.9 18 18 101890 91
2004-07-23 09:49:00 51°18.002 2°49.731 15.5 18 18 101890 91
2004-07-23 09:49:06 51°18.01 2°49.697 15.2 16 18 101890 91
2004-07-23 09:49:10 51°18.015 2°49.674 14.8 19 18 101890 91
2004-07-23 09:49:15 51°18.021 2°49.645 15.3 14 17.9 101890 90
2004-07-23 09:49:20 51°18.027 2°49.616 16 19 17.9 101890 90
2004-07-23 09:49:25 51°18.033 2°49.588 15.8 18 17.9 101880 90
2004-07-23 09:49:30 51°18.04 2°49.559 15.6 19 17.9 101880 90
2004-07-23 09:49:35 51°18.046 2°49.53 14.9 17 17.9 101890 91
2004-07-23 09:49:40 51°18.052 2°49.501 14.2 19 17.9 101890 91
2004-07-23 09:49:46 51°18.059 2°49.466 14.6 16 17.9 101890 91
2004-07-23 09:49:50 51°18.064 2°49.443 15.7 16 17.9 101890 91
2004-07-23 09:49:55 51°18.07 2°49.414 15.8 17 17.9 101880 91
2004-07-23 09:50:00 51°18.077 2°49.385 15.3 16 17.9 101880 91
2004-07-23 09:50:04 51°18.082 2°49.362 15.6 14 18 101890 91
2004-07-23 09:50:11 51°18.091 2°49.322 15.6 18 18 101890 91
2004-07-23 09:50:15 51°18.097 2°49.299 15.8 13 17.9 101910 91
2004-07-23 09:50:20 51°18.103 2°49.27 15.9 16 17.9 101910 91
2004-07-23 09:50:25 51°18.11 2°49.241 17.1 17 17.9 101890 91
2004-07-23 09:50:30 51°18.117 2°49.212 16.9 20 17.9 101890 91
2004-07-23 09:50:35 51°18.124 2°49.184 17 17 17.9 101890 91
2004-07-23 09:50:40 51°18.131 2°49.155 16.6 16 17.9 101890 91
2004-07-23 09:50:46 51°18.139 2°49.121 16.3 15 17.9 101900 91
2004-07-23 09:50:50 51°18.144 2°49.097 15.4 17 17.9 101900 91
2004-07-23 09:50:55 51°18.151 2°49.068 16.1 17 17.9 101890 91
2004-07-23 09:51:00 51°18.158 2°49.04 15.6 15 17.9 101890 91
2004-07-23 09:51:04 51°18.163 2°49.017 16.4 17 17.9 101890 91
2004-07-23 09:51:08 51°18.168 2°48.994 15.6 17 17.9 101890 91
2004-07-23 09:51:15 51°18.177 2°48.955 15.8 18 17.9 101890 91
2004-07-23 09:51:20 51°18.183 2°48.927 14.9 13 17.9 101890 91
2004-07-23 09:51:25 51°18.19 2°48.899 14.9 15 17.9 101890 91
2004-07-23 09:51:30 51°18.197 2°48.87 15.2 17 17.9 101890 91
2004-07-23 09:51:35 51°18.204 2°48.842 16.2 18 17.9 101890 91
2004-07-23 09:51:40 51°18.211 2°48.813 15.7 18 17.9 101890 91
2004-07-23 09:51:44 51°18.217 2°48.79 15.8 19 17.8 101900 91
2004-07-23 09:51:51 51°18.227 2°48.75 15.3 13 17.8 101900 91
2004-07-23 09:51:55 51°18.232 2°48.727 15.3 15 17.9 101900 91
2004-07-23 09:52:00 51°18.239 2°48.698 16.2 14 17.9 101900 91
2004-07-23 09:52:04 51°18.244 2°48.675 16.4 13 17.9 101900 91
2004-07-23 09:52:10 51°18.252 2°48.64 16.6 18 17.9 101900 91
2004-07-23 09:52:15 51°18.258 2°48.611 16.4 19 17.9 101890 91
2004-07-23 09:52:20 51°18.265 2°48.582 16 18 17.9 101890 91
2004-07-23 09:52:23 51°18.268 2°48.564 16.5 18 17.8 101900 91
2004-07-23 09:52:30 51°18.277 2°48.523 16 18 17.8 101900 91
2004-07-23 09:52:35 51°18.284 2°48.493 15.5 16 17.8 101900 91
2004-07-23 09:52:40 51°18.291 2°48.463 14.7 17 17.8 101900 91
2004-07-23 09:52:44 51°18.297 2°48.44 14.9 17 17.8 101900 91
2004-07-23 09:52:50 51°18.305 2°48.406 15.7 12 17.8 101900 91
2004-07-23 09:52:55 51°18.312 2°48.378 16.7 14 17.8 101900 91
2004-07-23 09:53:00 51°18.318 2°48.349 16.8 16 17.8 101900 91
2004-07-23 09:53:06 51°18.327 2°48.315 15.7 15 17.8 101890 91
2004-07-23 09:53:10 51°18.333 2°48.292 16.8 16 17.8 101890 91
2004-07-23 09:53:15 51°18.34 2°48.263 17.7 14 17.8 101900 91
2004-07-23 09:53:19 51°18.345 2°48.24 16.1 15 17.8 101900 91
2004-07-23 09:53:24 51°18.352 2°48.211 16.4 19 17.8 101900 91
2004-07-23 09:53:30 51°18.36 2°48.175 16.2 21 17.8 101900 91
2004-07-23 09:53:35 51°18.366 2°48.145 15.2 20 17.8 101910 91
2004-07-23 09:53:40 51°18.372 2°48.114 16.1 22 17.8 101910 91
2004-07-23 09:53:44 51°18.376 2°48.09 16.6 22 17.8 101890 91
2004-07-23 09:53:50 51°18.382 2°48.054 16.1 23 17.8 101890 91
2004-07-23 09:53:54 51°18.385 2°48.03 15.6 21 17.8 101900 91
2004-07-23 09:54:00 51°18.391 2°47.994 14.6 19 17.8 101900 91
2004-07-23 09:54:06 51°18.397 2°47.957 16.3 18 17.8 101890 91
2004-07-23 09:54:11 51°18.402 2°47.927 15.3 20 17.8 101890 91
2004-07-23 09:54:14 51°18.405 2°47.908 15.8 22 17.8 101890 91
2004-07-23 09:54:19 51°18.409 2°47.878 15.7 21 17.8 101890 91
2004-07-23 09:54:25 51°18.415 2°47.842 15.8 19 17.8 101900 91
2004-07-23 09:54:30 51°18.42 2°47.812 15.3 17 17.8 101900 91
2004-07-23 09:54:35 51°18.424 2°47.782 15 17 17.8 101890 91
2004-07-23 09:54:40 51°18.429 2°47.753 16 21 17.8 101890 91
2004-07-23 09:54:46 51°18.435 2°47.717 16 21 17.8 101880 91
2004-07-23 09:54:50 51°18.439 2°47.693 15.3 20 17.8 101880 91
2004-07-23 09:54:54 51°18.443 2°47.669 15.8 19 17.8 101890 91
2004-07-23 09:55:00 51°18.449 2°47.634 15.7 18 17.8 101890 91
2004-07-23 09:55:04 51°18.452 2°47.61 15.1 18 17.8 101890 91
2004-07-23 09:55:10 51°18.458 2°47.574 16.1 17 17.8 101890 91
2004-07-23 09:55:15 51°18.463 2°47.544 15.8 18 17.8 101890 91
2004-07-23 09:55:20 51°18.468 2°47.514 16.2 20 17.8 101890 91
2004-07-23 09:55:24 51°18.472 2°47.49 17 21 17.8 101890 91
2004-07-23 09:55:30 51°18.477 2°47.454 16.3 21 17.8 101890 91
2004-07-23 09:55:34 51°18.48 2°47.429 16.3 21 17.9 101880 91
2004-07-23 09:55:40 51°18.486 2°47.393 15.4 23 17.9 101880 91
2004-07-23 09:55:44 51°18.49 2°47.369 15.5 21 17.8 101880 91
2004-07-23 09:55:50 51°18.496 2°47.332 15 20 17.8 101880 91
2004-07-23 09:55:55 51°18.501 2°47.302 15.5 22 17.8 101870 91
2004-07-23 09:56:00 51°18.506 2°47.272 15.3 20 17.8 101870 91
2004-07-23 09:56:04 51°18.509 2°47.248 15.2 19 17.8 101890 91
2004-07-23 09:56:10 51°18.515 2°47.213 14.9 18 17.8 101890 91
2004-07-23 09:56:15 51°18.519 2°47.183 15 19 17.8 101890 91
2004-07-23 09:56:20 51°18.524 2°47.153 15.7 19 17.8 101890 91
2004-07-23 09:56:24 51°18.527 2°47.129 14.6 17 17.9 101890 91
2004-07-23 09:56:31 51°18.533 2°47.087 14.7 21 17.9 101890 91
2004-07-23 09:56:35 51°18.536 2°47.062 15.2 21 17.9 101900 91
2004-07-23 09:56:40 51°18.539 2°47.032 14.8 19 17.9 101900 91
2004-07-23 09:56:44 51°18.542 2°47.007 15 17 17.9 101880 91
2004-07-23 09:56:50 51°18.548 2°46.971 15 19 17.9 101880 91
2004-07-23 09:56:54 51°18.551 2°46.947 15.5 18 17.9 101890 91
2004-07-23 09:57:00 51°18.556 2°46.911 16.3 19 17.9 101890 91
2004-07-23 09:57:04 51°18.56 2°46.886 16.4 18 17.9 101880 91
2004-07-23 09:57:10 51°18.565 2°46.85 16.2 18 17.9 101880 91
2004-07-23 09:57:14 51°18.569 2°46.826 15.5 20 17.9 101890 91
2004-07-23 09:57:18 51°18.573 2°46.802 15.7 16 17.9 101890 91
2004-07-23 09:57:26 51°18.581 2°46.754 15.6 15 17.9 101900 91
2004-07-23 09:57:30 51°18.585 2°46.73 15.8 15 17.9 101900 91
2004-07-23 09:57:34 51°18.589 2°46.707 15.4 16 17.9 101890 91
2004-07-23 09:57:40 51°18.596 2°46.671 15.2 18 17.9 101890 91
2004-07-23 09:57:44 51°18.6 2°46.647 15.8 17 17.8 101890 91
2004-07-23 09:57:50 51°18.607 2°46.611 15.6 16 17.8 101890 91
2004-07-23 09:57:55 51°18.613 2°46.582 15.6 18 17.9 101900 91
2004-07-23 09:58:00 51°18.618 2°46.552 15 19 17.9 101900 91
2004-07-23 09:58:04 51°18.623 2°46.528 14.6 15 17.8 101890 91
2004-07-23 09:58:10 51°18.63 2°46.493 15.5 16 17.8 101890 91
2004-07-23 09:58:14 51°18.634 2°46.469 15.9 16 17.8 101900 91
2004-07-23 09:58:20 51°18.641 2°46.434 15.5 19 17.8 101900 91
2004-07-23 09:58:26 51°18.648 2°46.398 15.8 18 17.9 101900 91
2004-07-23 09:58:30 51°18.653 2°46.374 15.4 20 17.9 101900 91
2004-07-23 09:58:34 51°18.657 2°46.35 15.4 20 17.9 101900 91
2004-07-23 09:58:40 51°18.664 2°46.314 15.5 20 17.9 101900 91
2004-07-23 09:58:44 51°18.668 2°46.289 14.3 19 17.8 101890 91
2004-07-23 09:58:51 51°18.675 2°46.247 15.4 17 17.8 101890 91
2004-07-23 09:58:55 51°18.68 2°46.223 15.8 20 17.9 101890 91
2004-07-23 09:59:00 51°18.685 2°46.193 15.1 20 17.9 101890 91
2004-07-23 09:59:04 51°18.69 2°46.169 14.7 14 17.9 101890 91
2004-07-23 09:59:10 51°18.697 2°46.133 16.1 17 17.9 101890 91
2004-07-23 09:59:14 51°18.701 2°46.109 15.9 19 17.9 101900 91
2004-07-23 09:59:20 51°18.708 2°46.073 15.7 16 17.9 101900 91
2004-07-23 09:59:24 51°18.713 2°46.049 15.7 16 17.9 101890 91
2004-07-23 09:59:30 51°18.719 2°46.014 16.3 18 17.9 101890 91
2004-07-23 09:59:35 51°18.725 2°45.984 15.5 18 17.9 101900 91
2004-07-23 09:59:40 51°18.731 2°45.954 15.4 23 17.9 101900 91
2004-07-23 09:59:44 51°18.735 2°45.93 17.1 23 17.9 101900 91
2004-07-23 09:59:50 51°18.741 2°45.893 16.7 21 17.9 101900 91
2004-07-23 09:59:55 51°18.747 2°45.863 15.4 17 17.8 101900 91
2004-07-23 10:00:00 51°18.752 2°45.833 15.4 18 17.8 101900 91
2004-07-23 10:00:04 51°18.756 2°45.809 15.9 18 17.9 101890 91
2004-07-23 10:00:10 51°18.763 2°45.773 16.5 19 17.9 101890 91
2004-07-23 10:00:14 51°18.767 2°45.749 15.9 19 17.9 101890 91
2004-07-23 10:00:20 51°18.774 2°45.712 15.6 20 17.9 101890 91
2004-07-23 10:00:24 51°18.779 2°45.688 16.1 22 17.9 101900 91
2004-07-23 10:00:30 51°18.785 2°45.652 14.7 14 17.9 101900 91
2004-07-23 10:00:35 51°18.791 2°45.622 14.5 16 17.9 101890 90
2004-07-23 10:00:40 51°18.796 2°45.591 16.3 21 17.9 101890 90
2004-07-23 10:00:43 51°18.799 2°45.573 15.2 19 17.9 101890 90
2004-07-23 10:00:50 51°18.807 2°45.531 15.6 16 17.9 101890 90
2004-07-23 10:00:54 51°18.811 2°45.507 16.1 18 17.9 101890 90
2004-07-23 10:01:00 51°18.818 2°45.471 15.9 17 17.9 101890 90
2004-07-23 10:01:05 51°18.824 2°45.441 15.6 17 17.9 101910 91
2004-07-23 10:01:11 51°18.831 2°45.404 16.1 18 17.9 101910 91
2004-07-23 10:01:15 51°18.836 2°45.381 15.4 18 17.9 101900 91
2004-07-23 10:01:20 51°18.841 2°45.351 15.7 16 17.9 101900 91
2004-07-23 10:01:24 51°18.846 2°45.327 16.1 16 17.9 101890 90
2004-07-23 10:01:30 51°18.853 2°45.291 15.8 18 17.9 101890 90
2004-07-23 10:01:35 51°18.86 2°45.261 15.8 10 17.9 101890 90
2004-07-23 10:01:40 51°18.866 2°45.231 16.7 17 17.9 101890 90
2004-07-23 10:01:46 51°18.873 2°45.195 16.2 15 17.9 101900 90
2004-07-23 10:01:50 51°18.878 2°45.171 15.8 18 17.9 101900 90
2004-07-23 10:01:55 51°18.884 2°45.141 16 16 17.8 101910 90
2004-07-23 10:02:00 51°18.89 2°45.111 15.7 19 17.8 101910 90
2004-07-23 10:02:05 51°18.896 2°45.081 16.4 21 17.9 101910 90
2004-07-23 10:02:09 51°18.901 2°45.057 14.7 17 17.9 101910 90
2004-07-23 10:02:15 51°18.908 2°45.021 15.1 17 17.8 101910 90
2004-07-23 10:02:20 51°18.914 2°44.991 15.3 17 17.8 101910 90
2004-07-23 10:02:25 51°18.92 2°44.961 15.7 19 17.8 101900 90
2004-07-23 10:02:31 51°18.928 2°44.925 14.6 13 17.8 101900 90
2004-07-23 10:02:34 51°18.932 2°44.907 15.3 20 17.9 101900 91
2004-07-23 10:02:40 51°18.939 2°44.871 16.3 15 17.9 101900 91
2004-07-23 10:02:45 51°18.945 2°44.841 16.2 16 17.9 101910 90
2004-07-23 10:02:50 51°18.951 2°44.811 15.9 20 17.9 101910 90
2004-07-23 10:02:55 51°18.957 2°44.781 15.4 15 17.8 101900 91
2004-07-23 10:03:00 51°18.963 2°44.751 15.6 17 17.8 101900 91
2004-07-23 10:03:04 51°18.968 2°44.727 14.4 13 17.8 101900 91
2004-07-23 10:03:10 51°18.975 2°44.691 14.9 15 17.8 101900 91
2004-07-23 10:03:15 51°18.982 2°44.661 15.7 14 17.8 101910 91
2004-07-23 10:03:20 51°18.988 2°44.631 16.4 16 17.8 101910 91
2004-07-23 10:03:24 51°18.993 2°44.607 16.7 17 17.9 101910 91
2004-07-23 10:03:30 51°19.001 2°44.57 16.1 19 17.9 101910 91
2004-07-23 10:03:34 51°19.006 2°44.545 16.5 19 17.8 101910 91
2004-07-23 10:03:40 51°19.014 2°44.509 16.3 16 17.8 101910 91
2004-07-23 10:03:44 51°19.019 2°44.484 16.2 17 17.8 101900 91
2004-07-23 10:03:50 51°19.026 2°44.447 16.5 18 17.8 101900 91
2004-07-23 10:03:55 51°19.032 2°44.417 15.9 18 17.8 101910 91
2004-07-23 10:04:00 51°19.038 2°44.386 15.4 16 17.8 101910 91
2004-07-23 10:04:04 51°19.043 2°44.362 13.8 14 17.8 101900 90
2004-07-23 10:04:10 51°19.05 2°44.325 15.6 16 17.8 101900 90
2004-07-23 10:04:15 51°19.056 2°44.295 15.7 17 17.8 101910 90
2004-07-23 10:04:20 51°19.062 2°44.266 15.3 18 17.8 101910 90
2004-07-23 10:04:24 51°19.067 2°44.242 14.6 18 17.8 101890 91
2004-07-23 10:04:30 51°19.074 2°44.206 16.3 17 17.8 101890 91
2004-07-23 10:04:35 51°19.08 2°44.177 15.2 15 17.8 101920 91
2004-07-23 10:04:40 51°19.086 2°44.147 17 15 17.8 101920 91
2004-07-23 10:04:46 51°19.093 2°44.112 16.2 14 17.8 101900 91
2004-07-23 10:04:50 51°19.098 2°44.088 16.8 19 17.8 101900 91
2004-07-23 10:04:55 51°19.104 2°44.058 17.3 15 17.8 101900 91
2004-07-23 10:05:00 51°19.11 2°44.029 16.6 14 17.8 101900 91
2004-07-23 10:05:05 51°19.116 2°44 16.3 18 17.8 101910 90
2004-07-23 10:05:11 51°19.124 2°43.964 16.7 20 17.8 101910 90
2004-07-23 10:05:15 51°19.128 2°43.941 16.8 20 17.8 101910 90
2004-07-23 10:05:19 51°19.133 2°43.917 15.8 17 17.8 101910 90
2004-07-23 10:05:24 51°19.139 2°43.887 15.2 19 17.8 101900 90
2004-07-23 10:05:30 51°19.146 2°43.852 15.3 17 17.8 101900 90
2004-07-23 10:05:35 51°19.151 2°43.822 14.4 12 17.8 101900 90
2004-07-23 10:05:40 51°19.157 2°43.792 15.8 18 17.8 101900 90
2004-07-23 10:05:46 51°19.164 2°43.756 16.9 18 17.8 101900 90
2004-07-23 10:05:50 51°19.169 2°43.732 16.4 18 17.8 101900 90
2004-07-23 10:05:55 51°19.175 2°43.703 15.6 20 17.8 101900 90
2004-07-23 10:06:00 51°19.18 2°43.673 15.4 16 17.8 101900 90
2004-07-23 10:06:04 51°19.185 2°43.649 15.3 17 17.8 101910 90
2004-07-23 10:06:10 51°19.192 2°43.614 14.9 13 17.8 101910 90
2004-07-23 10:06:15 51°19.197 2°43.584 16.5 16 17.8 101890 90
2004-07-23 10:06:20 51°19.203 2°43.554 17.2 17 17.8 101890 90
2004-07-23 10:06:24 51°19.207 2°43.531 16.5 19 17.8 101900 90
2004-07-23 10:06:30 51°19.214 2°43.495 15.5 17 17.8 101900 90
2004-07-23 10:06:35 51°19.22 2°43.466 14.3 14 17.8 101900 91
2004-07-23 10:06:40 51°19.226 2°43.436 17.1 16 17.8 101900 91
2004-07-23 10:06:45 51°19.232 2°43.406 15.6 14 17.8 101900 90
2004-07-23 10:06:50 51°19.238 2°43.377 17.1 17 17.8 101900 90
2004-07-23 10:06:55 51°19.244 2°43.347 16.4 16 17.8 101900 90
2004-07-23 10:07:00 51°19.249 2°43.317 16.7 20 17.8 101900 90
2004-07-23 10:07:05 51°19.255 2°43.288 16.5 20 17.8 101910 90
2004-07-23 10:07:11 51°19.262 2°43.252 16.6 18 17.8 101910 90
2004-07-23 10:07:15 51°19.266 2°43.228 16.2 22 17.8 101910 90
2004-07-23 10:07:20 51°19.272 2°43.199 16.1 20 17.8 101910 90
2004-07-23 10:07:25 51°19.277 2°43.169 15.2 19 17.8 101900 90
2004-07-23 10:07:31 51°19.284 2°43.133 16 19 17.8 101900 90
2004-07-23 10:07:35 51°19.288 2°43.11 15.8 17 17.8 101890 90
2004-07-23 10:07:40 51°19.294 2°43.08 16.3 15 17.8 101890 90
2004-07-23 10:07:44 51°19.299 2°43.056 15.8 15 17.8 101900 90
2004-07-23 10:07:50 51°19.306 2°43.021 15.9 16 17.8 101900 90
2004-07-23 10:07:55 51°19.312 2°42.991 15.4 15 17.8 101890 90
2004-07-23 10:08:00 51°19.318 2°42.961 15.3 18 17.8 101890 90
2004-07-23 10:08:06 51°19.324 2°42.926 15.5 16 17.8 101890 90
2004-07-23 10:08:10 51°19.329 2°42.902 15.3 14 17.8 101890 90
2004-07-23 10:08:15 51°19.335 2°42.872 15.6 17 17.8 101900 90
2004-07-23 10:08:20 51°19.341 2°42.842 14.4 18 17.8 101900 90
2004-07-23 10:08:24 51°19.345 2°42.819 15.3 17 17.8 101900 90
2004-07-23 10:08:29 51°19.351 2°42.789 15.9 19 17.8 101900 90
2004-07-23 10:08:35 51°19.357 2°42.753 16.4 17 17.8 101910 90
2004-07-23 10:08:40 51°19.363 2°42.723 14.4 15 17.8 101910 90
2004-07-23 10:08:44 51°19.367 2°42.698 14.7 16 17.8 101910 90
2004-07-23 10:08:51 51°19.375 2°42.657 14.2 13 17.8 101910 90
2004-07-23 10:08:54 51°19.378 2°42.639 15.8 17 17.8 101910 90
2004-07-23 10:09:00 51°19.385 2°42.603 16 15 17.8 101910 90
2004-07-23 10:09:05 51°19.391 2°42.573 16.5 16 17.8 101910 90
2004-07-23 10:09:10 51°19.396 2°42.543 16.5 16 17.8 101910 90
2004-07-23 10:09:14 51°19.401 2°42.52 16 15 17.8 101920 91
2004-07-23 10:09:20 51°19.408 2°42.484 15.7 12 17.8 101920 91
2004-07-23 10:09:24 51°19.413 2°42.461 16.9 16 17.8 101900 90
2004-07-23 10:09:30 51°19.42 2°42.425 15.8 17 17.8 101900 90
2004-07-23 10:09:34 51°19.424 2°42.401 15.9 12 17.8 101910 90
2004-07-23 10:09:40 51°19.431 2°42.366 15.9 14 17.8 101910 90
2004-07-23 10:09:46 51°19.438 2°42.33 16.5 15 17.8 101910 90
2004-07-23 10:09:50 51°19.442 2°42.306 15.6 13 17.8 101910 90
2004-07-23 10:09:55 51°19.448 2°42.276 15.1 15 17.8 101910 90
2004-07-23 10:10:00 51°19.454 2°42.246 17.1 17 17.8 101910 90
2004-07-23 10:10:06 51°19.46 2°42.21 17.1 16 17.8 101920 90
2004-07-23 10:10:10 51°19.465 2°42.187 17 17 17.8 101920 90
2004-07-23 10:10:15 51°19.471 2°42.157 16.7 21 17.8 101920 90
2004-07-23 10:10:20 51°19.477 2°42.127 15.7 17 17.8 101920 90
2004-07-23 10:10:24 51°19.481 2°42.103 15.4 12 17.8 101910 90
2004-07-23 10:10:30 51°19.488 2°42.068 17 14 17.8 101910 90
2004-07-23 10:10:40 51°19.5 2°42.008 16.8 18 17.8 101920 90
2004-07-23 10:10:44 51°19.504 2°41.984 16.6 14 17.8 101910 90
2004-07-23 10:10:50 51°19.511 2°41.948 16.4 15 17.8 101910 90
2004-07-23 10:10:55 51°19.516 2°41.918 16.8 17 17.8 101920 90
2004-07-23 10:11:00 51°19.523 2°41.888 16.1 15 17.8 101920 90
2004-07-23 10:11:06 51°19.53 2°41.853 16.4 17 17.8 101910 90
2004-07-23 10:11:10 51°19.534 2°41.829 15.2 19 17.8 101910 90
2004-07-23 10:11:14 51°19.539 2°41.805 15.4 15 17.8 101920 90
2004-07-23 10:11:20 51°19.546 2°41.769 15 14 17.8 101920 90
2004-07-23 10:11:24 51°19.551 2°41.746 15.7 16 17.8 101910 90
2004-07-23 10:11:31 51°19.559 2°41.704 16.4 16 17.8 101910 90
2004-07-23 10:11:35 51°19.564 2°41.68 16.2 15 17.8 101920 90
2004-07-23 10:11:40 51°19.569 2°41.65 16.5 18 17.8 101920 90
2004-07-23 10:11:44 51°19.574 2°41.626 15.4 16 17.8 101920 90
2004-07-23 10:11:50 51°19.581 2°41.591 15.3 14 17.8 101920 90
2004-07-23 10:11:55 51°19.587 2°41.561 15.2 15 17.8 101920 90
2004-07-23 10:12:00 51°19.593 2°41.531 14.3 15 17.8 101920 90
2004-07-23 10:12:04 51°19.598 2°41.507 14.4 14 17.8 101930 90
2004-07-23 10:12:10 51°19.605 2°41.471 15.1 16 17.8 101930 90
2004-07-23 10:12:14 51°19.611 2°41.447 16.2 15 17.8 101940 90
2004-07-23 10:12:20 51°19.618 2°41.411 15.5 17 17.8 101940 90
2004-07-23 10:12:24 51°19.623 2°41.387 16 16 17.8 101940 90
2004-07-23 10:12:30 51°19.63 2°41.351 15.8 18 17.8 101940 90
2004-07-23 10:12:35 51°19.636 2°41.321 15.5 18 17.8 101940 91
2004-07-23 10:12:40 51°19.641 2°41.29 14 14 17.8 101940 91
2004-07-23 10:12:46 51°19.648 2°41.254 15.9 12 17.8 101940 90
2004-07-23 10:12:50 51°19.653 2°41.229 15.5 15 17.8 101940 90
2004-07-23 10:12:54 51°19.658 2°41.205 15.4 17 17.8 101930 90
2004-07-23 10:13:00 51°19.665 2°41.169 16.2 15 17.8 101930 90
2004-07-23 10:13:06 51°19.672 2°41.133 15.5 14 17.8 101920 90
2004-07-23 10:13:11 51°19.679 2°41.103 15.4 14 17.8 101920 90
2004-07-23 10:13:15 51°19.684 2°41.079 14.6 15 17.8 101930 90
2004-07-23 10:13:20 51°19.69 2°41.049 15.4 14 17.8 101930 90
2004-07-23 10:13:23 51°19.693 2°41.03 15.4 14 17.8 101930 90
2004-07-23 10:13:32 51°19.704 2°40.976 15.2 14 17.8 101930 90
2004-07-23 10:13:36 51°19.709 2°40.952 15.2 19 17.8 101930 90
2004-07-23 10:13:42 51°19.716 2°40.915 14.6 17 17.8 101950 90
2004-07-23 10:13:48 51°19.723 2°40.879 14.3 9 17.8 101950 90
2004-07-23 10:13:52 51°19.728 2°40.855 15.3 16 17.8 101930 90
2004-07-23 10:13:58 51°19.735 2°40.819 15.6 16 17.8 101930 90
2004-07-23 10:14:03 51°19.741 2°40.789 14.9 11 17.8 101940 90
2004-07-23 10:14:08 51°19.747 2°40.758 15.8 9 17.8 101940 90
2004-07-23 10:14:11 51°19.751 2°40.74 15 13 17.8 101940 91
2004-07-23 10:14:18 51°19.759 2°40.698 15.6 14 17.8 101940 91
2004-07-23 10:14:23 51°19.765 2°40.667 15.7 16 17.8 101940 91
2004-07-23 10:14:27 51°19.77 2°40.643 16 14 17.8 101940 91
2004-07-23 10:14:30 51°19.774 2°40.625 15.9 11 17.8 101940 91
2004-07-23 10:14:40 51°19.786 2°40.563 15.5 14 17.8 101940 91
2004-07-23 10:14:44 51°19.791 2°40.539 14.5 13 17.8 101940 91
2004-07-23 10:14:50 51°19.798 2°40.502 15.9 13 17.8 101940 91
2004-07-23 10:14:54 51°19.803 2°40.477 15.7 12 17.8 101940 91
2004-07-23 10:15:00 51°19.811 2°40.441 15.8 14 17.8 101940 91
2004-07-23 10:15:06 51°19.818 2°40.404 16.2 11 17.8 101940 91
2004-07-23 10:15:10 51°19.823 2°40.38 15.6 13 17.8 101940 91
2004-07-23 10:15:14 51°19.828 2°40.355 15.9 18 17.8 101950 91
2004-07-23 10:15:20 51°19.835 2°40.319 14.6 14 17.8 101950 91
2004-07-23 10:15:24 51°19.839 2°40.294 15.1 12 17.8 101930 91
2004-07-23 10:15:30 51°19.845 2°40.257 14.5 11 17.8 101930 91
2004-07-23 10:15:34 51°19.85 2°40.233 14.1 17 17.8 101950 91
2004-07-23 10:15:40 51°19.857 2°40.196 15.4 12 17.8 101950 91
2004-07-23 10:15:44 51°19.861 2°40.172 15.6 13 17.8 101940 91
2004-07-23 10:15:50 51°19.868 2°40.135 15.3 13 17.8 101940 91
2004-07-23 10:15:54 51°19.873 2°40.111 15.3 15 17.8 101950 91
2004-07-23 10:16:00 51°19.88 2°40.074 15.5 14 17.8 101950 91
2004-07-23 10:16:04 51°19.884 2°40.05 15.3 16 17.8 101940 91
2004-07-23 10:16:10 51°19.891 2°40.014 14.9 11 17.8 101940 91
2004-07-23 10:16:14 51°19.896 2°39.989 14 12 17.8 101930 91
2004-07-23 10:16:18 51°19.901 2°39.965 14.9 11 17.8 101930 91
2004-07-23 10:16:24 51°19.908 2°39.929 15.5 13 17.8 101940 91
2004-07-23 10:16:30 51°19.915 2°39.892 15.7 15 17.8 101940 91
2004-07-23 10:16:34 51°19.919 2°39.868 16 13 17.7 101950 91
2004-07-23 10:16:40 51°19.926 2°39.832 15.3 17 17.7 101950 91
2004-07-23 10:16:46 51°19.934 2°39.795 14.3 12 17.7 101950 91
2004-07-23 10:16:50 51°19.938 2°39.771 14.4 14 17.7 101950 91
2004-07-23 10:16:54 51°19.943 2°39.747 14.3 13 17.7 101940 91
2004-07-23 10:17:00 51°19.949 2°39.71 15.7 15 17.7 101940 91
2004-07-23 10:17:04 51°19.954 2°39.686 15.2 14 17.7 101950 91
2004-07-23 10:17:10 51°19.961 2°39.649 14.9 12 17.7 101950 91
2004-07-23 10:17:14 51°19.965 2°39.625 15.3 16 17.7 101940 91
2004-07-23 10:17:20 51°19.972 2°39.588 15.9 11 17.7 101940 91
2004-07-23 10:17:24 51°19.977 2°39.564 15.5 14 17.7 101940 91
2004-07-23 10:17:30 51°19.984 2°39.528 16.2 14 17.7 101940 91
2004-07-23 10:17:34 51°19.989 2°39.504 15.1 15 17.7 101950 91
2004-07-23 10:17:40 51°19.995 2°39.468 14.7 12 17.7 101950 91
2004-07-23 10:17:44 51°20 2°39.443 13.9 12 17.7 101950 91
2004-07-23 10:17:48 51°20.005 2°39.419 15.1 11 17.7 101950 91
2004-07-23 10:17:54 51°20.012 2°39.383 14.8 12 17.7 101940 91
2004-07-23 10:18:00 51°20.019 2°39.347 14.6 13 17.7 101940 91
2004-07-23 10:18:04 51°20.024 2°39.323 15.2 11 17.7 101950 91
2004-07-23 10:18:10 51°20.031 2°39.287 15.5 12 17.7 101950 91
2004-07-23 10:18:14 51°20.036 2°39.263 14.8 14 17.7 101960 91
2004-07-23 10:18:18 51°20.04 2°39.239 14.9 12 17.7 101960 91
2004-07-23 10:18:26 51°20.05 2°39.19 15 16 17.7 101950 91
2004-07-23 10:18:30 51°20.054 2°39.166 15.1 13 17.7 101950 91
2004-07-23 10:18:34 51°20.059 2°39.142 15.5 15 17.7 101950 91
2004-07-23 10:18:40 51°20.066 2°39.105 15.4 17 17.7 101950 91
2004-07-23 10:18:44 51°20.07 2°39.081 14.7 13 17.7 101950 91
2004-07-23 10:18:50 51°20.077 2°39.044 14.9 14 17.7 101950 91
2004-07-23 10:18:54 51°20.081 2°39.02 15.2 15 17.7 101950 91
2004-07-23 10:19:00 51°20.088 2°38.984 14 12 17.7 101950 91
2004-07-23 10:19:06 51°20.095 2°38.947 14.4 15 17.7 101950 91
2004-07-23 10:19:10 51°20.1 2°38.923 14 17 17.7 101950 91
2004-07-23 10:19:14 51°20.104 2°38.899 15.2 17 17.7 101950 91
2004-07-23 10:19:20 51°20.111 2°38.862 14.7 13 17.7 101950 91
2004-07-23 10:19:24 51°20.116 2°38.838 14.7 17 17.7 101950 91
2004-07-23 10:19:30 51°20.123 2°38.802 14.2 13 17.7 101950 91
2004-07-23 10:19:34 51°20.127 2°38.778 14.5 14 17.7 101960 91
2004-07-23 10:19:40 51°20.134 2°38.741 15.2 13 17.7 101960 91
2004-07-23 10:19:44 51°20.138 2°38.717 15.1 13 17.7 101950 91
2004-07-23 10:19:50 51°20.145 2°38.68 15.2 12 17.7 101950 91
2004-07-23 10:19:54 51°20.15 2°38.656 14.7 14 17.7 101950 91
2004-07-23 10:20:00 51°20.157 2°38.62 15.8 15 17.7 101950 91
2004-07-23 10:20:04 51°20.162 2°38.596 14.9 16 17.7 101950 91
2004-07-23 10:20:10 51°20.169 2°38.56 15.5 17 17.7 101950 91
2004-07-23 10:20:14 51°20.173 2°38.536 14.6 13 17.7 101950 91
2004-07-23 10:20:20 51°20.181 2°38.499 14 14 17.7 101950 91
2004-07-23 10:20:24 51°20.185 2°38.475 14.9 15 17.7 101960 91
2004-07-23 10:20:30 51°20.193 2°38.439 14 14 17.7 101960 91
2004-07-23 10:20:34 51°20.197 2°38.415 14.3 12 17.7 101960 91
2004-07-23 10:20:40 51°20.204 2°38.379 15.2 17 17.7 101960 91
2004-07-23 10:20:44 51°20.209 2°38.354 15 11 17.7 101950 91
2004-07-23 10:20:50 51°20.216 2°38.318 15.1 20 17.7 101950 91
2004-07-23 10:20:54 51°20.221 2°38.294 15.1 16 17.7 101960 91
2004-07-23 10:21:00 51°20.228 2°38.257 14.5 14 17.7 101960 91
2004-07-23 10:21:04 51°20.232 2°38.233 14 12 17.7 101960 91
2004-07-23 10:21:10 51°20.239 2°38.197 14.8 14 17.7 101960 91
2004-07-23 10:21:14 51°20.244 2°38.173 14.1 16 17.7 101950 91
2004-07-23 10:21:20 51°20.251 2°38.136 14.4 11 17.7 101950 91
2004-07-23 10:21:26 51°20.258 2°38.1 14.9 13 17.7 101950 91
2004-07-23 10:21:30 51°20.263 2°38.076 14.9 13 17.7 101950 91
2004-07-23 10:21:34 51°20.268 2°38.052 14 13 17.7 101960 91
2004-07-23 10:21:40 51°20.274 2°38.015 14.5 13 17.7 101960 91
2004-07-23 10:21:44 51°20.279 2°37.991 15.1 13 17.7 101950 91
2004-07-23 10:21:50 51°20.286 2°37.955 13.6 13 17.7 101950 91
2004-07-23 10:21:54 51°20.29 2°37.93 14.8 13 17.7 101960 91
2004-07-23 10:22:00 51°20.297 2°37.894 15.5 11 17.7 101960 91
2004-07-23 10:22:06 51°20.304 2°37.858 14.6 10 17.7 101950 91
2004-07-23 10:22:10 51°20.309 2°37.834 15.2 15 17.7 101950 91
2004-07-23 10:22:14 51°20.314 2°37.81 14.6 13 17.7 101960 91
2004-07-23 10:22:20 51°20.321 2°37.774 14.5 11 17.7 101960 91
2004-07-23 10:22:24 51°20.325 2°37.749 15 13 17.7 101960 91
2004-07-23 10:22:28 51°20.33 2°37.725 15 13 17.7 101960 91
2004-07-23 10:22:34 51°20.337 2°37.689 15 13 17.7 101960 91
2004-07-23 10:22:39 51°20.343 2°37.659 14.9 13 17.7 101960 91
2004-07-23 10:22:46 51°20.351 2°37.617 13.9 12 17.7 101950 91
2004-07-23 10:22:50 51°20.355 2°37.593 14.8 12 17.7 101950 91
2004-07-23 10:22:54 51°20.36 2°37.569 14.8 10 17.7 101960 91
2004-07-23 10:23:00 51°20.367 2°37.532 13.6 13 17.7 101960 91
2004-07-23 10:23:04 51°20.372 2°37.508 13.2 12 17.7 101950 91
2004-07-23 10:23:08 51°20.377 2°37.484 13.1 13 17.7 101950 91
2004-07-23 10:23:20 51°20.392 2°37.413 13.3 9 17.7 101950 91
2004-07-23 10:23:23 51°20.396 2°37.395 14.3 8 17.7 101960 91
2004-07-23 10:23:30 51°20.406 2°37.354 14.3 15 17.7 101960 91
2004-07-23 10:23:34 51°20.411 2°37.33 14.2 12 17.7 101950 91
2004-07-23 10:23:39 51°20.418 2°37.301 14.5 11 17.7 101950 91
2004-07-23 10:23:44 51°20.425 2°37.271 14.4 10 17.7 101960 91
2004-07-23 10:23:50 51°20.433 2°37.236 13.9 10 17.7 101960 91
2004-07-23 10:23:54 51°20.439 2°37.212 14.1 9 17.7 101960 91
2004-07-23 10:23:59 51°20.446 2°37.183 13.2 10 17.7 101960 91
2004-07-23 10:24:03 51°20.451 2°37.159 13.6 7 17.7 101960 91
2004-07-23 10:24:10 51°20.461 2°37.118 14.4 10 17.7 101960 91
2004-07-23 10:24:14 51°20.467 2°37.095 13.8 6 17.7 101960 91
2004-07-23 10:24:19 51°20.476 2°37.067 14.6 8 17.7 101960 91
2004-07-23 10:24:25 51°20.485 2°37.032 14.5 7 17.7 101970 91
2004-07-23 10:24:29 51°20.492 2°37.01 14.1 7 17.7 101970 91
2004-07-23 10:24:34 51°20.501 2°36.982 13.8 7 17.7 101960 91
2004-07-23 10:24:39 51°20.509 2°36.954 13 6 17.7 101960 91
2004-07-23 10:24:43 51°20.516 2°36.932 13.7 10 17.7 101970 91
2004-07-23 10:24:49 51°20.527 2°36.899 14.9 6 17.7 101970 91
2004-07-23 10:24:53 51°20.535 2°36.877 14.6 3 17.7 101970 91
2004-07-23 10:24:59 51°20.546 2°36.844 14.3 4 17.7 101970 91
2004-07-23 10:25:03 51°20.553 2°36.822 14.5 4 17.7 101970 91
2004-07-23 10:25:09 51°20.565 2°36.789 14.4 3 17.7 101970 91
2004-07-23 10:25:14 51°20.575 2°36.763 15 2 17.7 101960 91
2004-07-23 10:25:20 51°20.587 2°36.731 15.5 3 17.7 101960 91
2004-07-23 10:25:23 51°20.593 2°36.715 14.9 1 17.7 101970 91
2004-07-23 10:25:30 51°20.608 2°36.679 14.9 2 17.7 101970 91
2004-07-23 10:25:34 51°20.616 2°36.658 14.8 1 17.7 101970 91
2004-07-23 10:25:39 51°20.627 2°36.633 14.9 1 17.7 101970 91
2004-07-23 10:25:43 51°20.635 2°36.612 15 3 17.7 101970 91
2004-07-23 10:25:49 51°20.648 2°36.581 14.8 4 17.7 101970 91
2004-07-23 10:25:54 51°20.658 2°36.555 14.6 3 17.7 101960 91
2004-07-23 10:25:59 51°20.669 2°36.529 14.4 1 17.7 101960 91
2004-07-23 10:26:05 51°20.681 2°36.497 14.1 2 17.7 101960 91
2004-07-23 10:26:10 51°20.692 2°36.472 14.9 1 17.7 101960 91
2004-07-23 10:26:14 51°20.7 2°36.451 14 1 17.7 101970 91
2004-07-23 10:26:19 51°20.711 2°36.425 14.2 2 17.7 101970 91
2004-07-23 10:26:25 51°20.724 2°36.394 14.2 3 17.7 101980 91
2004-07-23 10:26:30 51°20.735 2°36.369 14.3 359 17.7 101980 91
2004-07-23 10:26:34 51°20.743 2°36.348 14.3   17.7 101970 91
2004-07-23 10:26:39 51°20.754 2°36.322 15 2 17.7 101970 91
2004-07-23 10:26:44 51°20.764 2°36.296 14.7   17.7 101980 91
2004-07-23 10:26:50 51°20.777 2°36.264 14.7 2 17.7 101980 91
2004-07-23 10:26:54 51°20.785 2°36.244 15 3 17.7 101970 91
2004-07-23 10:26:59 51°20.796 2°36.218 14.6 360 17.7 101970 91
2004-07-23 10:27:04 51°20.807 2°36.192 14.2 359 17.7 101980 91
2004-07-23 10:27:10 51°20.82 2°36.162 13.7 354 17.7 101980 91
2004-07-23 10:27:14 51°20.83 2°36.142 14 358 17.7 101970 91
2004-07-23 10:27:20 51°20.844 2°36.113 14.5 360 17.7 101970 91
2004-07-23 10:27:24 51°20.854 2°36.095 14.5 358 17.7 101970 91
2004-07-23 10:27:30 51°20.868 2°36.066 13.7 356 17.7 101970 91
2004-07-23 10:27:34 51°20.879 2°36.048 14.9 357 17.7 101970 91
2004-07-23 10:27:40 51°20.894 2°36.02 14.4 353 17.7 101970 91
2004-07-23 10:27:44 51°20.904 2°36.001 15.1 355 17.7 101970 91
2004-07-23 10:27:51 51°20.921 2°35.968 14.1 351 17.7 101970 91
2004-07-23 10:27:56 51°20.934 2°35.946 14 351 17.7 101980 91
2004-07-23 10:28:00 51°20.944 2°35.928 14.2 352 17.7 101980 91
2004-07-23 10:28:04 51°20.955 2°35.911 14.5 353 17.7 101970 91
2004-07-23 10:28:10 51°20.971 2°35.887 13.9 349 17.7 101970 91
2004-07-23 10:28:14 51°20.983 2°35.873 14.1 348 17.8 101970 91
2004-07-23 10:28:18 51°20.995 2°35.859 14 346 17.8 101970 91
2004-07-23 10:28:26 51°21.019 2°35.832 13.7 345 17.8 101970 91
2004-07-23 10:28:30 51°21.031 2°35.819 13.4 345 17.8 101970 91
2004-07-23 10:28:34 51°21.043 2°35.805 12.1 349 17.8 101970 91
2004-07-23 10:28:40 51°21.061 2°35.786 13.4 348 17.8 101970 91
2004-07-23 10:28:44 51°21.073 2°35.773 13.3 347 17.8 101970 91
2004-07-23 10:28:50 51°21.091 2°35.754 12.8 348 17.8 101970 91
2004-07-23 10:28:55 51°21.107 2°35.738 12.9 350 17.8 101970 91
2004-07-23 10:29:00 51°21.121 2°35.721 13.6 348 17.8 101970 91
2004-07-23 10:29:04 51°21.134 2°35.707 13.9 349 17.8 101970 91
2004-07-23 10:29:10 51°21.151 2°35.685 13.5 348 17.8 101970 91
2004-07-23 10:29:15 51°21.166 2°35.667 13.4 350 17.8 101980 91
2004-07-23 10:29:20 51°21.18 2°35.648 13.3 351 17.8 101980 91
2004-07-23 10:29:24 51°21.191 2°35.633 14 348 17.8 101970 91
2004-07-23 10:29:31 51°21.211 2°35.607 13.3 351 17.8 101970 91
2004-07-23 10:29:35 51°21.223 2°35.592 14.1 351 17.8 101970 91
2004-07-23 10:29:40 51°21.237 2°35.572 13.5 349 17.8 101970 91
2004-07-23 10:29:44 51°21.249 2°35.557 13.2 349 17.8 101970 91
2004-07-23 10:29:48 51°21.26 2°35.543 14.5 347 17.8 101970 91
2004-07-23 10:29:54 51°21.278 2°35.52 14.2 348 17.8 101970 91
2004-07-23 10:30:00 51°21.295 2°35.498 13.6 349 17.8 101970 91
2004-07-23 10:30:04 51°21.306 2°35.484 14.4 348 17.8 101970 91
2004-07-23 10:30:11 51°21.326 2°35.457 13.8 349 17.8 101970 91
2004-07-23 10:30:15 51°21.338 2°35.442 12.8 350 17.8 101970 91
2004-07-23 10:30:19 51°21.349 2°35.427 13.2 346 17.8 101970 91
2004-07-23 10:30:26 51°21.37 2°35.401 13.6 351 17.8 101970 91
2004-07-23 10:30:30 51°21.381 2°35.386 13.6 349 17.8 101970 91
2004-07-23 10:30:35 51°21.395 2°35.367 13.4 348 17.8 101970 90
2004-07-23 10:30:40 51°21.41 2°35.348 13.4 353 17.8 101970 90
2004-07-23 10:30:46 51°21.427 2°35.326 13.8 349 17.8 101970 91
2004-07-23 10:30:51 51°21.441 2°35.307 13.8 351 17.8 101970 91
2004-07-23 10:30:55 51°21.453 2°35.292 14.2 353 17.8 101980 91
2004-07-23 10:31:00 51°21.467 2°35.272 13.3 352 17.8 101980 91
2004-07-23 10:31:04 51°21.478 2°35.257 13.5 348 17.8 101980 91
2004-07-23 10:31:10 51°21.495 2°35.232 13.2 349 17.8 101980 91
2004-07-23 10:31:14 51°21.506 2°35.217 14.2 352 17.8 101970 91
2004-07-23 10:31:20 51°21.523 2°35.193 13.9 349 17.8 101970 91
2004-07-23 10:31:25 51°21.537 2°35.175 14.2 349 17.8 101970 91
2004-07-23 10:31:30 51°21.551 2°35.155 14.3 349 17.8 101970 91
2004-07-23 10:31:34 51°21.563 2°35.141 14.6 349 17.8 101970 91
2004-07-23 10:31:40 51°21.58 2°35.118 13.9 348 17.8 101970 91
2004-07-23 10:31:44 51°21.591 2°35.103 14.4 349 17.8 101970 91
2004-07-23 10:31:50 51°21.608 2°35.079 14.2 348 17.8 101970 91
2004-07-23 10:31:54 51°21.619 2°35.064 14 349 17.8 101970 91
2004-07-23 10:32:00 51°21.636 2°35.04 14.4 347 17.8 101970 91
2004-07-23 10:32:04 51°21.647 2°35.025 13.9 348 17.8 101970 90
2004-07-23 10:32:08 51°21.659 2°35.01 14 348 17.8 101970 90
2004-07-23 10:32:14 51°21.676 2°34.987 14.5 347 17.8 101970 90
2004-07-23 10:32:20 51°21.693 2°34.965 14.3 345 17.8 101970 90
2004-07-23 10:32:24 51°21.705 2°34.95 14.1 347 17.8 101970 90
2004-07-23 10:32:30 51°21.722 2°34.928 14.1 346 17.8 101970 90
2004-07-23 10:32:34 51°21.734 2°34.914 13.3 349 17.8 101980 90
2004-07-23 10:32:38 51°21.746 2°34.899 13.5 348 17.8 101980 90
2004-07-23 10:32:46 51°21.768 2°34.868 12.5 350 17.8 101980 90
2004-07-23 10:32:50 51°21.779 2°34.853 13.3 352 17.8 101980 90
2004-07-23 10:32:54 51°21.79 2°34.837 13.8 352 17.8 101970 91
2004-07-23 10:33:00 51°21.808 2°34.815 14.4 349 17.8 101970 91
2004-07-23 10:33:06 51°21.825 2°34.792 13.3 350 17.8 101980 91
2004-07-23 10:33:10 51°21.837 2°34.777 13.8 351 17.8 101980 91
2004-07-23 10:33:14 51°21.848 2°34.761 12.9 351 17.8 101970 91
2004-07-23 10:33:19 51°21.862 2°34.742 13.6 351 17.8 101970 91
2004-07-23 10:33:26 51°21.882 2°34.715 13.7 349 17.8 101980 90
2004-07-23 10:33:31 51°21.896 2°34.696 14.1 351 17.8 101980 90
2004-07-23 10:33:34 51°21.904 2°34.685 13 351 17.8 101970 90
2004-07-23 10:33:40 51°21.921 2°34.662 13.6 350 17.8 101970 90
2004-07-23 10:33:44 51°21.933 2°34.646 13.5 350 17.8 101970 91
2004-07-23 10:33:50 51°21.95 2°34.623 13.4 349 17.8 101970 91
2004-07-23 10:33:54 51°21.961 2°34.608 12.9 349 17.8 101980 90
2004-07-23 10:34:00 51°21.978 2°34.584 12.6 347 17.8 101980 90
2004-07-23 10:34:04 51°21.989 2°34.569 12.5 354 17.8 101980 90
2004-07-23 10:34:16 51°22.021 2°34.518 13.5 356 17.8 101980 90
2004-07-23 10:34:22 51°22.036 2°34.492 13.6 357 17.8 101980 90
2004-07-23 10:34:26 51°22.047 2°34.474 13.8 356 17.8 101980 90
2004-07-23 10:34:31 51°22.059 2°34.451 13 356 17.8 101980 90
2004-07-23 10:34:36 51°22.071 2°34.427 12.7 357 17.8 101980 90
2004-07-23 10:34:42 51°22.086 2°34.399 13.5 353 17.8 101980 90
2004-07-23 10:34:46 51°22.095 2°34.381 13.9 357 17.8 101980 90
2004-07-23 10:34:50 51°22.105 2°34.362 12.9 357 17.8 101980 90
2004-07-23 10:34:56 51°22.12 2°34.334 12.7 356 17.8 101980 90
2004-07-23 10:35:02 51°22.134 2°34.305 13.4 359 17.8 101980 90
2004-07-23 10:35:06 51°22.144 2°34.287 13.3 359 17.8 101980 90
2004-07-23 10:35:10 51°22.154 2°34.269 14.2 357 17.8 101980 90
2004-07-23 10:35:16 51°22.169 2°34.242 13.5 357 17.8 101980 90
2004-07-23 10:35:22 51°22.184 2°34.214 13.7 356 17.8 101980 90
2004-07-23 10:35:26 51°22.194 2°34.196 13.6 359 17.8 101980 90
2004-07-23 10:35:30 51°22.203 2°34.176 13.7 359 17.8 101980 90
2004-07-23 10:35:36 51°22.216 2°34.147 13.6 1 17.8 101980 90
2004-07-23 10:35:42 51°22.23 2°34.117 13.2 1 17.8 101980 90
2004-07-23 10:35:46 51°22.238 2°34.097 13.7 1 17.8 101970 90
2004-07-23 10:35:50 51°22.247 2°34.077 12.5 2 17.8 101970 90
2004-07-23 10:35:56 51°22.259 2°34.045 13.3 3 17.8 101980 90
2004-07-23 10:36:00 51°22.267 2°34.024 13 3 17.8 101980 90
2004-07-23 10:36:06 51°22.278 2°33.992 13.3 7 17.8 101980 90
2004-07-23 10:36:10 51°22.285 2°33.97 13.3 9 17.8 101980 90
2004-07-23 10:36:16 51°22.295 2°33.936 12.5 6 17.7 101980 90
2004-07-23 10:36:20 51°22.302 2°33.913 13.5 8 17.7 101980 90
2004-07-23 10:36:26 51°22.311 2°33.879 14 6 17.8 101990 90
2004-07-23 10:36:30 51°22.317 2°33.856 14.3 5 17.8 101990 90
2004-07-23 10:36:36 51°22.326 2°33.821 14.3 6 17.8 101990 90
2004-07-23 10:36:42 51°22.335 2°33.786 14.3 11 17.8 101990 90
2004-07-23 10:36:45 51°22.339 2°33.768 13.6 8 17.7 101990 90
2004-07-23 10:36:50 51°22.347 2°33.739 13.7 10 17.7 101990 90
2004-07-23 10:36:55 51°22.353 2°33.709 13.8 11 17.7 101990 90
2004-07-23 10:36:59 51°22.359 2°33.686 14.2 14 17.7 101990 90
2004-07-23 10:37:05 51°22.366 2°33.65 13.9 11 17.7 101980 90
2004-07-23 10:37:10 51°22.373 2°33.62 13.5 11 17.7 101980 90
2004-07-23 10:37:15 51°22.379 2°33.59 13.1 11 17.7 101970 90
2004-07-23 10:37:21 51°22.386 2°33.555 14.8 10 17.7 101970 90
2004-07-23 10:37:25 51°22.391 2°33.531 14.6 11 17.7 101980 90